Strait of Georgia - south of Nanaimo: Past 24 Hour Conditions

 

Halibut Bank - 46146

10:00 PM PST 19 January 2018Buoy position: 49.34N 123.72W
Disclaimer

This table is a summary of hourly weather conditions for the past 24 hours.
Please note that these observations might not always be representative of weather conditions over their associated marine area.

Date / Time
(PST)
Wind(knots) Wave height(m) Wave period(s) Pressure(kPa) Air tempC) Water tempC)
19 January 2018
22:00 ESE 12 gust 14 0.8 5.0 101.0 8 8
21:00 SE 12 gust 14 0.8 4.0 100.9 8 8
20:00 SE 16 gust 18 0.9 4.0 100.8 8 8
19:00 SE 16 gust 19 0.9 4.0 100.8 8 8
18:00 ESE 18 gust 21 1.0 4.0 100.8 8 8
17:00 ESE 21 gust 23 1.0 4.0 100.8 8 7
16:00 SE 21 gust 25 1.1 4.0 100.8 8 7
15:00 N/A N/A N/A N/A N/A N/A
14:00 N/A N/A N/A N/A N/A N/A
13:00 ESE 21 gust 27 1.0 5.0 100.8 7 7
12:00 ESE 21 gust 25 1.0 4.0 100.8 7 7
11:00 ESE 23 gust 27 1.2 4.0 100.9 7 7
10:00 ESE 21 gust 27 1.1 4.0 100.8 7 7
9:00 ESE 21 gust 27 1.0 4.0 100.8 7 7
8:00 ESE 21 gust 23 1.0 4.0 100.8 7 7
7:00 E 21 gust 25 0.8 4.0 100.7 7 7
6:00 ESE 19 gust 23 0.7 4.0 100.7 7 7
5:00 ESE 21 gust 23 0.8 4.0 100.7 7 7
4:00 ESE 19 gust 23 0.7 4.0 100.7 7 7
3:00 ESE 19 gust 23 0.8 4.0 100.7 7 7
2:00 ESE 21 gust 23 0.9 4.0 100.7 7 7
1:00 N/A N/A N/A N/A N/A N/A
0:00 SE 19 gust 23 1.0 4.0 100.7 7 7
18 January 2018
23:00 SE 19 gust 25 0.9 4.0 100.6 7 7
22:00 SE 19 gust 21 0.8 4.0 100.6 7 7

Zoom-in to make a selection

Map of Pacific - Georgia Basin marine weather areas Tsawwassen Ferry Terminal Sentry Shoal - 46131 Halibut Bank - 46146 La Perouse Bank - 46206 Discovery Island Esquimalt Harbour Kelp Reefs Malahat Race Rocks Lightstation Saturna Island Sheringham Point University of Victoria Victoria Gonzales Victoria Int'l Airport Ballenas Islands Campbell River Airport Comox Airport Entrance Island Fanny Island Nanaimo Airport Sisters Islets Estevan Point Tofino Airport Grief Point Powell River Airport Sechelt Point Atkinson Sand Heads Lightstation Vancouver Harbour Vancouver Int'l Airport West Vancouver Port Alberni Howe Sound - Pam Rocks Squamish Airport
Legend:
buoy Buoy
land station Land Station

Pacific - Georgia Basin Area

Another Region

What we are doing

Date modified: